AirNav   SIMCOM
 
 1557 users online  

NA86 Johnson Private Airstrip
Luverne, North Dakota, USA


FAA INFORMATION EFFECTIVE 14 SEPTEMBER 2017

Location

FAA Identifier: NA86
Lat/Long: 47-19-59.9630N / 097-54-03.3510W
47-19.999383N / 097-54.055850W
47.3333231 / -97.9009308
(estimated)
Elevation: 1492 ft. / 455 m (estimated)
Variation: 07E (1985)
From city: 4 miles NE of LUVERNE, ND
Time zone: UTC -5 (UTC -6 during Standard Time)
Zip code: 58056

Airport Operations

Airport use: Private use. Permission required prior to landing
Activation date: 08/1982
Control tower: no
ARTCC: MINNEAPOLIS CENTER
FSS: GRAND FORKS FLIGHT SERVICE STATION
Attendance: UNATNDD
Wind indicator: yes
Segmented circle: no

Airport Communications

WX AWOS-3 at S32 (10 nm NW): 118.750 (701-797-2566)

Nearby radio navigation aids

VOR radial/distance  VOR name  Freq  Var
JMSr043/39.8JAMESTOWN VOR/DME114.5010E

Airport Services

Fuel available: FUEL NOT FOR SALE-EMERGENCY USE ONLY.

Runway Information

Runway 17/35

Dimensions: 4100 x 50 ft. / 1250 x 15 m
Surface: turf
RUNWAY 17  RUNWAY 35
Traffic pattern: leftleft
Obstructions: 30 ft. trees, 50 ft. from runway
AND BUILDING.
none

Airport Ownership and Management from official FAA records

Ownership: Privately-owned
Owner: VERNON L. JOHNSON
RT. 2 BOX 60
LUVERNE, ND 58056
Phone 701-945-2607
Manager: VERNON L. JOHNSON
RT. 2 BOX 60
LUVERNE, ND 58056
Phone 701-945-2607

Airport Operational Statistics

Aircraft based on the field: 1
Single engine airplanes: 1
    

Instrument Procedures

There are no published instrument procedures at NA86.

Some nearby airports with instrument procedures:

S32 - Cooperstown Municipal Airport (10 nm NW)
KBAC - Barnes County Municipal Airport (24 nm S)
4V4 - Northwood Municipal Airport-Vince Field (27 nm NE)
3H4 - Hillsboro Municipal Airport (34 nm E)
KJMS - Jamestown Regional Airport (40 nm SW)
 
Loc | Ops | Rwys | IFR | FBO | Links
Com | Nav | Svcs | Stats | Notes


 
Area around NA86 (Johnson Private Airstrip)
 
Road maps at: MapQuest Bing Google
 
Aerial photo
No photo
 
Sectional chart

 
Airport distance calculator
Flying to Johnson Private Airstrip? Find the distance to fly.

From to NA86

Sunrise and sunset
Times for 20-Sep-2017
 Local
(UTC-5)
 Zulu
(UTC)
Morning civil twilight06:4611:46
Sunrise07:1712:17
Sunset19:3300:33
Evening civil twilight20:0401:04

Current date and time
Zulu (UTC)  20-Sep-2017 20:09:35
Local (UTC-5)  20-Sep-2017 15:09:35
 
METAR
KS32 
10nm NW 
201955Z AUTO 24016G23KT 10SM CLR 20/06 A2973 RMK AO2
TAF
KJMS 
39nm SW 
201721Z 2018/2118 23014G22KT P6SM SKC FM210100 16008KT P6SM SKC FM210800 17012KT P6SM BKN150 WS020/19045KT FM211500 16016G26KT P6SM SCT200
KRDR 
43nm NE 
201800Z 2018/2124 24012G18KT 9999 SCT080 QNH2968INS TEMPO 2020/2023 22015G25KT BECMG 2023/2024 18009KT 9999 SCT100 QNH2972INS BECMG 2111/2112 16009KT 9999 FEW200 WS020/18045KT QNH2975INS BECMG 2114/2115 16012G18KT 9999 BKN150 QNH2972INS BECMG 2116/2117 15015G25KT 9999 FEW120 QNH2963INS TEMPO 2118/2122 15020G30KT 510003 BECMG 2123/2124 16009KT 9999 FEW120 QNH2964INS TX23/2021Z TN09/2111Z
KGFK 
47nm NE 
201720Z 2018/2118 23014KT P6SM SKC FM210100 18009KT P6SM FEW250 FM211400 17012G21KT P6SM BKN200
NOTAMs
Click for the latest NOTAMs
NOTAMs are issued by the DoD/FAA and will open in a separate window not controlled by AirNav.

 

 
 

Would you like to see your business listed on this page?

 If your business provides an interesting product or service to pilots, flight crews, aircraft, or users of the Johnson Private Airstrip, you should consider listing it here.  To start the listing process, click on the button below
 
Add a business
 

Other Pages about Johnson Private Airstrip

Update a link
 
Copyright © AirNav, LLC. All rights reserved. Privacy Policy  Contact